SCP
0 0 0 0 0 0 0 0 0 0 0 0 0 0 0 0 0 0 0 1 1 1 2 3 4 3 2 2 2 2 2 1 1 1 1 1 1 1 1 1 1 1 1 1 1 1 0 0 0
0 0 0 0 0 0 0 0 0 0 0 0 0 0 1 1 1 1 1 1 1 2 2 3 4 3 2 2 2 2 2 2 1 1 1 1 1 1 1 1 1 1 1 1 1 1 0 0 0
0 0 0 0 0 0 0 0 0 0 0 0 0 0 1 1 1 1 1 1 2 2 2 4 4 4 3 2 2 2 2 2 2 1 1 1 1 1 1 1 1 1 1 1 1 1 1 1 0
0 0 0 0 0 0 0 0 0 0 0 0 0 1 1 1 1 1 1 1 2 2 3 4 5 4 3 3 3 3 2 2 2 2 1 1 1 1 1 1 1 1 1 1 1 1 1 1 1
0 0 0 0 0 0 0 0 0 0 0 0 1 1 1 1 1 1 1 1 2 3 4 5 5 5 4 3 3 3 3 3 2 2 2 1 1 1 1 1 1 1 1 1 1 1 1 1 1
0 0 0 0 0 0 0 0 0 0 0 0 1 1 1 1 1 0 1 1 1 3 4 5 6 5 5 4 4 3 3 3 3 2 2 2 1 1 1 1 1 1 1 1 1 1 1 1 1
0 0 0 0 0 0 0 0 0 0 0 0 0 1 1 1 1 1 1 1 1 3 5 6 6 5 5 4 4 3 3 3 3 3 2 2 1 1 1 1 1 1 1 1 1 1 1 1 1
0 0 0 0 0 0 0 0 0 0 0 0 0 0 0 0 0 1 1 2 2 3 5 6 6 6 6 5 4 3 3 3 3 3 2 2 1 1 1 1 1 1 1 1 1 1 1 1 1
0 0 0 0 0 0 0 0 0 0 0 0 0 0 0 0 0 1 2 2 3 3 5 6 7 7 6 6 4 4 3 3 3 3 2 2 1 1 1 1 1 1 1 1 1 1 1 1 0
0 0 0 0 0 0 0 0 0 0 0 0 0 1 1 1 1 1 1 2 2 3 5 6 8 8 8 7 5 5 4 4 3 3 2 2 1 1 1 1 1 1 1 1 0 0 0 0 0
0 0 0 0 0 0 0 0 0 0 0 0 1 1 1 1 1 1 1 1 1 2 4 6 7 8 8 8 6 5 5 4 4 3 2 2 1 1 1 1 1 1 1 0 0 0 0 0 0
0 0 0 0 0 0 0 0 0 0 0 0 1 1 1 1 1 1 1 1 1 1 2 3 5 6 8 8 7 6 5 5 4 3 3 2 1 1 1 1 1 1 1 0 0 0 0 0 0
0 0 0 0 0 0 0 0 0 0 0 0 1 1 1 1 1 1 1 1 1 1 1 2 3 4 5 6 7 6 6 5 5 4 3 3 2 1 1 1 1 1 0 0 0 0 0 0 0
0 0 0 0 0 0 0 0 0 0 0 1 1 1 1 1 1 1 1 1 1 1 1 1 2 3 3 4 5 5 5 5 5 4 4 3 2 1 1 1 1 1 1 0 0 0 0 0 0
0 0 0 0 0 0 0 0 0 0 0 1 1 1 1 1 1 1 2 2 1 1 1 1 1 2 2 3 3 4 4 4 4 4 3 3 2 1 1 1 1 1 1 0 0 0 0 0 0
0 0 0 0 0 0 0 0 0 0 0 1 1 1 1 1 1 1 1 2 1 1 1 1 1 1 2 2 3 3 3 2 2 3 3 3 2 2 1 1 1 1 1 1 0 0 0 0 0
0 0 0 0 0 0 0 0 0 0 0 0 0 1 1 1 1 1 1 1 2 1 1 1 1 1 1 2 2 3 3 2 2 2 2 2 2 1 1 1 1 1 1 1 0 0 0 0 0
0 0 0 0 0 0 0 0 0 0 0 0 0 0 1 1 1 1 1 1 2 1 1 1 1 1 1 1 1 2 3 2 2 2 2 1 1 1 1 2 2 1 1 1 1 0 0 0 0
0 0 0 0 0 0 0 0 0 0 0 0 0 0 0 1 1 1 1 1 2 2 1 1 1 1 1 1 1 2 2 3 3 2 2 1 1 1 1 1 2 2 1 1 1 0 0 0 0
0 0 0 0 0 0 0 0 0 0 0 0 0 0 0 0 0 1 1 1 2 2 2 1 1 1 1 1 1 1 2 2 3 2 2 2 1 1 1 1 1 2 2 1 1 0 0 0 0
0 0 0 0 0 0 0 0 0 0 0 0 0 0 0 0 0 1 1 1 1 2 2 2 1 1 1 1 1 1 1 2 2 3 2 2 2 1 1 1 1 2 2 1 1 0 0 0 0
0 0 0 0 0 0 0 0 0 0 0 0 0 0 0 0 0 0 1 1 1 2 3 3 2 1 1 1 1 1 1 1 1 2 2 2 2 2 1 1 1 1 1 1 1 1 0 0 0
0 0 0 0 0 0 0 0 0 0 0 0 0 0 0 0 0 0 0 1 1 2 3 4 3 2 2 2 1 1 1 0 1 1 1 1 1 2 2 1 1 1 1 1 1 1 1 1 1
0 0 0 0 0 0 0 0 0 0 0 0 0 0 0 0 0 0 0 1 1 1 2 4 4 3 2 2 1 1 1 0 0 0 0 1 1 1 1 1 1 1 1 1 1 1 1 1 1
0 0 0 0 0 0 0 0 0 0 0 0 0 0 0 0 0 0 0 0 1 1 2 3 4 3 3 2 2 1 1 1 0 0 0 0 0 1 1 1 1 1 1 1 1 2 1 1 1
0 0 0 0 0 0 0 0 0 0 0 0 0 0 0 0 0 0 0 0 1 1 1 3 4 3 3 2 2 1 1 1 1 0 0 0 0 0 0 0 1 1 1 1 1 1 1 1 1
0 0 0 0 0 0 0 0 0 0 0 0 0 0 0 0 0 0 0 0 1 1 1 2 3 3 3 2 2 2 1 1 1 0 0 0 0 0 0 0 0 0 1 1 1 1 1 0 0
0 0 0 0 0 0 0 0 0 0 0 0 0 0 0 0 0 0 0 0 0 1 1 2 3 3 3 3 2 1 1 1 1 1 0 0 0 0 0 0 0 0 0 0 0 0 0 0 0
0 0 0 0 0 0 0 0 0 0 0 0 0 0 0 0 0 0 0 0 0 1 1 2 2 3 3 2 2 1 1 1 0 0 0 0 0 0 0 0 0 0 0 0 0 0 0 0 0
0 0 0 0 0 0 0 0 0 0 0 0 0 0 0 0 0 0 0 0 0 0 1 1 2 2 2 2 2 1 1 0 0 0 0 0 0 0 0 0 0 0 0 0 0 0 0 0 0
Wind_Speed
6 3 2 4 6 5 1 3 1 0 1 1 1 3 5 5 4 3 0 2 3 3 2 5 8 9 9 10 10 10 10 11 11 11 11 11 11 11 11 11 11 11 11 11 11 11 11 11 12
1 2 4 5 5 2 3 3 2 2 3 3 3 3 4 2 1 3 1 1 3 4 3 4 9 9 10 10 10 10 10 10 11 11 10 10 10 10 10 10 10 10 10 10 10 10 10 10 10
1 3 5 5 4 5 4 2 3 1 2 2 3 3 2 1 1 1 0 2 3 4 3 4 9 9 10 10 10 10 10 10 10 10 10 10 10 10 10 10 10 10 10 10 10 10 9 9 9
3 5 5 4 3 4 3 1 2 3 2 3 3 3 2 1 0 1 2 3 5 4 3 4 9 9 9 9 10 9 9 10 10 10 10 10 10 10 9 9 9 9 9 9 9 9 9 8 8
4 5 4 1 3 2 1 1 2 2 1 2 3 3 1 3 3 4 4 4 5 4 3 4 9 9 9 9 9 9 9 9 9 9 9 9 9 9 9 9 9 8 8 8 8 7 8 8 8
5 4 3 4 4 2 1 1 1 2 1 2 3 3 0 1 3 3 4 4 4 5 4 4 8 9 9 9 9 9 9 9 9 9 9 9 9 9 8 8 8 8 8 8 8 7 7 6 6
4 4 4 4 3 2 1 1 2 2 1 1 2 4 1 1 2 3 4 5 4 4 5 4 4 6 8 9 9 9 9 9 9 9 9 9 8 8 8 8 7 7 7 7 7 7 6 6 6
4 5 2 3 3 3 1 1 1 2 2 1 2 5 4 3 3 4 5 5 4 4 4 4 4 4 4 5 8 9 9 9 9 9 9 9 8 8 8 7 7 7 7 7 7 6 6 6 6
3 4 4 5 5 3 1 2 1 1 3 1 1 1 2 6 6 6 5 4 3 4 3 3 4 4 4 4 6 7 8 8 8 7 9 7 4 4 5 6 7 7 7 7 7 6 6 6 6
3 3 5 3 3 3 1 2 2 2 2 1 1 2 5 7 7 7 6 5 4 3 2 2 3 3 4 4 4 3 4 4 4 4 4 3 3 3 5 6 8 7 7 7 7 7 6 5 3
2 4 2 1 1 1 1 1 1 4 2 4 5 5 6 7 7 6 6 5 4 3 2 2 2 3 3 3 3 2 2 3 3 4 3 3 3 3 3 2 3 4 5 4 5 4 3 3 2
2 1 1 1 0 1 2 1 1 2 3 2 4 7 8 8 8 7 6 5 4 3 2 2 2 3 3 3 2 2 2 2 2 2 3 3 2 2 2 2 2 2 2 2 3 2 3 3 2
1 1 0 0 2 1 1 0 1 2 2 2 5 6 7 7 6 5 4 4 4 3 2 2 2 3 3 3 2 2 2 2 2 2 2 2 2 2 2 1 2 2 2 2 2 2 3 3 2
2 1 1 1 1 1 1 2 1 3 1 3 5 5 6 6 6 4 4 4 4 3 2 2 2 2 3 2 2 2 2 2 2 2 2 2 2 2 1 1 1 2 2 2 1 1 2 2 2
1 1 2 1 0 1 1 3 4 3 3 4 4 4 4 4 4 5 5 5 4 4 3 2 3 2 2 2 2 2 2 2 2 1 1 2 2 2 1 1 1 1 1 1 1 2 2 2 2
2 2 1 2 1 1 3 7 3 2 4 4 4 3 3 3 3 4 4 3 3 3 3 2 3 3 3 2 2 1 2 2 1 1 1 1 2 2 1 1 0 1 1 1 1 1 2 2 2
1 2 3 2 1 1 3 6 2 1 3 4 4 4 3 3 3 3 3 3 4 4 3 3 3 3 3 2 2 2 2 2 1 1 1 1 1 2 1 1 0 1 1 1 1 1 1 1 2
4 3 2 3 2 1 3 6 4 2 4 5 4 4 4 5 5 4 3 3 3 4 3 3 3 3 3 2 2 2 2 1 1 1 1 1 1 1 1 1 1 1 1 1 1 1 1 1 1
3 3 3 3 1 1 4 7 7 4 4 5 5 5 5 6 4 3 3 3 3 3 3 3 4 3 3 2 2 1 1 0 1 1 1 1 1 1 1 1 1 1 1 0 1 0 1 1 2
2 3 3 2 1 1 3 7 7 5 6 6 8 8 7 5 3 3 3 3 4 4 4 4 3 3 3 2 2 1 1 1 1 0 1 1 1 1 0 1 1 1 0 1 1 1 0 1 1
3 5 4 3 2 2 2 7 4 3 3 4 5 6 6 7 7 5 4 4 4 4 5 4 4 4 3 2 2 2 2 2 1 1 1 1 0 0 0 0 0 1 1 1 1 1 1 1 1
4 3 3 2 1 3 0 5 6 3 4 5 6 5 6 6 6 5 5 5 5 5 4 4 4 3 3 3 3 4 2 1 1 1 0 1 1 1 0 0 0 0 1 1 1 1 1 1 1
3 1 1 1 2 2 1 3 9 2 5 7 7 6 6 5 5 6 6 6 4 4 4 4 4 3 3 3 3 3 2 1 1 1 1 1 1 1 1 1 0 0 0 1 1 1 1 1 2
3 3 3 2 1 4 5 5 8 4 7 6 4 4 4 4 4 4 3 3 3 3 3 3 4 3 3 3 3 3 3 3 2 1 1 0 1 1 1 1 0 0 0 1 1 1 1 1 1
3 4 2 3 1 6 3 5 10 6 5 5 5 5 4 3 4 4 4 4 4 3 3 3 4 3 3 3 3 3 3 3 3 2 1 0 0 1 1 1 1 1 1 1 1 0 1 1 1
3 5 6 5 5 4 2 7 9 4 3 3 3 3 2 3 3 3 4 4 4 4 3 3 4 3 3 3 2 2 2 2 2 2 1 1 1 1 1 1 1 1 1 1 1 1 1 1 1
4 3 3 4 1 3 6 7 8 3 3 3 2 0 2 2 2 3 3 3 4 4 3 4 4 3 3 3 3 2 2 2 2 1 1 1 1 1 0 1 1 1 1 1 1 1 1 1 1
2 5 4 4 3 4 5 5 5 5 5 3 2 2 2 1 1 2 2 2 2 2 2 2 3 3 2 3 2 2 2 2 2 1 1 1 1 0 0 1 1 1 1 1 1 1 1 0 1
2 2 3 3 3 4 4 7 4 4 3 3 4 3 2 2 2 1 1 2 2 2 2 3 2 2 2 2 2 2 1 1 1 1 1 1 1 1 1 1 1 1 1 1 0 1 1 1 1
2 4 5 4 4 3 3 9 3 2 2 2 3 2 1 1 1 1 1 2 2 2 2 2 2 2 2 2 2 2 2 2 1 1 1 1 1 1 1 1 1 1 1 1 1 1 1 1 2
Wind_Direction
348 10 61 57 58 56 211 242 206 174 145 108 104 111 133 137 151 165 96 93 95 123 143 140 127 121 115 109 104 99 95 92 91 91 92 92 90 88 85 83 81 78 76 75 75 79 80 80 79
357 26 54 61 92 124 254 231 197 209 159 117 66 70 84 91 54 96 92 79 104 119 119 127 126 123 118 113 108 103 98 95 91 90 90 90 90 88 85 84 81 79 76 74 74 77 81 82 81
45 53 80 80 122 178 208 205 191 78 92 87 84 61 95 108 88 124 105 123 98 101 103 130 125 123 118 115 112 107 103 100 94 93 90 87 86 87 87 86 83 79 77 76 73 75 79 81 81
70 51 58 83 193 217 208 175 141 124 68 61 105 81 56 28 133 131 105 112 102 96 91 121 120 120 120 117 112 108 105 102 97 94 91 88 85 85 85 84 83 82 81 79 75 74 76 77 80
60 78 75 95 232 249 255 202 139 114 95 66 108 106 43 359 54 97 105 104 111 102 93 115 117 116 115 115 112 107 102 100 97 93 90 88 86 83 82 81 80 79 79 79 76 74 74 73 73
61 75 115 210 233 252 263 251 116 101 112 97 109 111 80 40 85 106 104 97 99 103 94 100 111 110 110 108 107 106 102 99 96 92 88 85 83 81 81 79 78 76 75 73 72 73 72 68 67
107 110 169 193 219 240 226 133 130 139 142 192 152 122 145 146 114 116 101 92 89 89 87 87 99 102 102 100 97 96 96 95 93 90 85 80 77 77 77 75 75 74 72 68 65 65 64 62 61
120 111 139 195 200 231 189 107 95 144 174 123 131 147 182 190 138 113 99 90 87 79 80 84 89 89 91 93 91 90 89 87 86 83 79 75 69 67 66 61 63 64 62 59 56 55 55 53 53
90 96 189 200 193 212 172 116 45 62 107 74 70 170 167 137 128 117 106 93 94 89 75 86 90 89 91 94 88 84 84 82 81 78 77 72 59 53 52 49 52 53 53 51 48 46 47 46 45
98 166 209 199 187 176 174 150 158 110 86 76 56 62 110 128 137 138 138 139 136 132 107 93 102 102 98 97 89 79 81 79 77 74 75 68 61 51 53 47 46 44 44 43 41 37 38 37 29
127 182 195 226 209 148 141 140 152 138 191 204 184 161 146 144 147 151 152 153 157 149 122 99 108 109 104 98 96 79 76 78 77 77 78 75 66 52 46 44 36 31 35 34 30 30 26 29 25
130 251 188 261 285 122 161 152 133 196 223 208 172 156 156 160 167 171 168 164 157 145 139 115 112 110 109 108 105 100 91 87 84 80 82 81 73 60 47 40 29 27 21 24 26 24 24 30 27
174 222 331 357 44 73 100 192 207 258 272 107 124 140 162 170 176 177 164 154 149 151 146 144 120 115 117 114 112 107 106 105 102 96 87 87 92 81 67 45 32 23 17 17 19 25 23 22 19
172 130 317 334 0 321 170 260 202 250 174 126 142 163 177 181 177 164 158 160 164 160 158 144 123 121 121 119 122 117 115 112 101 97 94 94 96 96 83 59 38 22 12 5 13 18 19 11 13
112 72 344 313 189 222 101 295 234 224 168 159 172 178 182 188 174 177 181 173 170 167 158 145 137 119 122 126 130 120 114 104 98 93 95 95 93 98 95 83 41 11 11 23 32 24 26 21 11
76 84 270 292 162 190 144 254 261 187 166 183 190 191 191 204 194 192 182 169 154 151 152 150 139 127 122 117 114 117 112 107 100 92 91 91 93 96 95 87 34 9 26 37 35 33 19 8 360
68 196 225 283 235 149 177 247 260 187 177 198 201 199 200 207 218 212 186 171 162 160 158 147 128 127 125 113 101 95 94 94 97 92 87 88 92 96 104 101 38 37 52 41 28 22 15 355 343
205 204 212 228 269 164 222 255 273 241 210 215 215 212 210 212 222 216 193 174 164 155 150 146 128 123 120 110 99 92 87 84 83 86 84 89 93 92 104 96 36 54 64 35 28 21 9 357 330
166 176 215 240 266 207 241 263 270 244 231 228 226 223 222 229 231 206 186 170 154 140 143 156 143 140 129 118 120 124 134 124 93 81 71 70 83 101 117 102 75 68 84 33 12 51 32 1 353
200 217 242 287 330 217 266 275 274 243 231 224 221 223 223 227 225 203 185 172 170 167 165 168 161 155 151 148 146 138 126 119 119 59 54 45 46 52 79 135 165 166 129 69 44 51 25 340 11
232 217 222 237 329 352 319 293 271 261 246 243 233 226 222 217 216 205 193 191 178 178 178 177 174 163 155 138 110 95 81 67 58 24 6 344 342 71 94 160 198 205 176 193 218 203 164 291 323
239 233 212 213 188 278 160 279 281 260 274 255 244 232 225 224 216 207 194 190 193 195 179 170 165 159 153 144 140 140 141 156 194 199 204 351 9 32 53 116 153 223 233 223 237 230 237 203 268
196 90 144 208 187 272 237 233 281 303 266 258 244 235 230 223 212 205 199 193 190 180 168 166 155 145 143 138 147 145 132 140 120 100 80 34 7 23 30 42 88 106 301 296 281 266 257 229 230
149 76 44 38 84 254 224 202 274 242 237 259 246 238 234 220 212 201 188 168 161 149 152 153 152 150 143 136 136 141 141 135 126 121 121 25 347 355 6 11 4 347 320 295 292 289 284 269 272
112 103 37 348 307 249 203 207 250 250 249 251 249 244 239 218 199 185 174 170 164 156 155 155 152 152 144 138 136 142 143 143 153 166 171 176 316 304 314 335 300 287 275 272 262 242 275 263 262
193 158 166 199 227 271 228 231 251 262 281 278 261 237 217 211 200 191 185 177 173 167 160 156 161 160 152 147 148 139 140 146 155 168 173 194 233 276 301 301 297 295 294 295 281 269 264 267 262
150 193 162 135 178 262 260 275 293 279 297 307 301 218 221 222 201 187 173 168 172 172 175 169 165 164 163 160 151 143 143 151 158 170 164 192 242 267 322 326 316 315 310 297 278 270 287 306 308
161 151 125 147 180 249 276 264 258 276 280 303 297 257 246 218 185 169 164 162 167 169 165 149 154 165 164 156 159 153 157 167 169 166 172 190 219 239 296 302 301 309 319 316 279 280 311 341 310
150 162 155 156 174 185 256 266 237 245 258 259 260 255 240 211 196 179 159 147 135 133 143 144 144 141 143 150 156 146 157 156 152 166 183 191 211 225 251 275 288 298 309 311 321 319 321 310 309
205 197 166 175 219 200 219 266 293 256 276 257 265 270 238 187 170 166 142 123 123 135 139 144 150 155 163 160 155 154 149 145 146 164 190 191 205 226 240 253 273 294 315 318 308 295 293 272 276